| time (UTC) | temp F | wind direction | speed MPH | gust MPH | rain 1hr in | rain 24hr in | rain mn in | humidity % | barometer mb |
| 20260506155102 | 45 | 263 | 8.0 | 14.0 | 0.00 | 0.00 | 0.00 | 48 | 1017.5 |
| 20260506154613 | 45 | 350 | 7.0 | 15.0 | 0.00 | 0.00 | 0.00 | 52 | 1017.6 |
| 20260506154059 | 44 | 302 | 6.0 | 19.0 | 0.00 | 0.00 | 0.00 | 52 | 1017.6 |
| 20260506153558 | 44 | 314 | 8.0 | 19.0 | 0.00 | 0.00 | 0.00 | 51 | 1017.6 |
| 20260506153058 | 44 | 310 | 6.0 | 16.0 | 0.00 | 0.00 | 0.00 | 51 | 1017.7 |
| 20260506152556 | 44 | 302 | 5.0 | 17.0 | 0.00 | 0.00 | 0.00 | 52 | 1017.6 |
| 20260506152101 | 43 | 290 | 6.0 | 17.0 | 0.00 | 0.00 | 0.00 | 52 | 1017.6 |
| 20260506151558 | 43 | 257 | 8.0 | 16.0 | 0.00 | 0.00 | 0.00 | 52 | 1017.6 |
| 20260506151058 | 43 | 289 | 6.0 | 17.0 | 0.00 | 0.00 | 0.00 | 53 | 1017.6 |
| 20260506150555 | 42 | 300 | 7.0 | 17.0 | 0.00 | 0.00 | 0.00 | 54 | 1017.7 |
| 20260506150057 | 42 | 250 | 7.0 | 17.0 | 0.00 | 0.00 | 0.00 | 54 | 1017.6 |
| 20260506145559 | 42 | 275 | 5.0 | 15.0 | 0.00 | 0.00 | 0.00 | 55 | 1017.6 |
| 20260506145101 | 41 | 349 | 6.0 | 19.0 | 0.00 | 0.00 | 0.00 | 56 | 1017.6 |
| 20260506144604 | 41 | 273 | 8.0 | 19.0 | 0.00 | 0.00 | 0.00 | 57 | 1017.6 |
| 20260506144103 | 40 | 289 | 4.0 | 12.0 | 0.00 | 0.00 | 0.00 | 61 | 1017.7 |
| 20260506143603 | 39 | 305 | 6.0 | 12.0 | 0.00 | 0.00 | 0.00 | 60 | 1017.6 |
| 20260506143058 | 39 | 292 | 3.0 | 9.0 | 0.00 | 0.00 | 0.00 | 61 | 1017.5 |
| 20260506142558 | 38 | 338 | 5.0 | 10.0 | 0.00 | 0.00 | 0.00 | 62 | 1017.5 |
| 20260506142058 | 38 | 304 | 4.0 | 10.0 | 0.00 | 0.00 | 0.00 | 62 | 1017.5 |
| 20260506141602 | 38 | 293 | 5.0 | 13.0 | 0.00 | 0.00 | 0.00 | 62 | 1017.5 |
| 20260506141103 | 38 | 323 | 7.0 | 13.0 | 0.00 | 0.00 | 0.00 | 64 | 1017.5 |
| 20260506140602 | 37 | 292 | 4.0 | 11.0 | 0.00 | 0.00 | 0.00 | 65 | 1017.4 |
| 20260506140057 | 37 | 266 | 5.0 | 11.0 | 0.00 | 0.00 | 0.00 | 65 | 1017.4 |
| 20260506135559 | 37 | 312 | 5.0 | 13.0 | 0.00 | 0.00 | 0.00 | 65 | 1017.4 |
| 20260506135059 | 37 | 311 | 4.0 | 13.0 | 0.00 | 0.00 | 0.00 | 66 | 1017.4 |
| 20260506134601 | 36 | 265 | 7.0 | 11.0 | 0.00 | 0.00 | 0.00 | 67 | 1017.4 |
| 20260506134055 | 36 | 285 | 6.0 | 11.0 | 0.00 | 0.00 | 0.00 | 69 | 1017.4 |
| 20260506133559 | 36 | 271 | 5.0 | 11.0 | 0.00 | 0.00 | 0.00 | 69 | 1017.4 |
| 20260506133126 | 35 | 277 | 4.0 | 9.0 | 0.00 | 0.00 | 0.00 | 71 | 1017.3 |
| 20260506132559 | 35 | 302 | 2.0 | 9.0 | 0.00 | 0.00 | 0.00 | 71 | 1017.4 |
| 20260506132059 | 35 | 279 | 4.0 | 9.0 | 0.00 | 0.00 | 0.00 | 71 | 1017.4 |
| 20260506131558 | 34 | 297 | 3.0 | 8.0 | 0.00 | 0.00 | 0.00 | 71 | 1017.3 |
| 20260506131059 | 34 | 301 | 2.0 | 7.0 | 0.00 | 0.00 | 0.00 | 71 | 1017.2 |
| 20260506130559 | 34 | 271 | 2.0 | 7.0 | 0.00 | 0.00 | 0.00 | 72 | 1017.2 |
| 20260506130121 | 34 | 307 | 2.0 | 7.0 | 0.00 | 0.00 | 0.00 | 72 | 1017.2 |
| 20260506125559 | 34 | 296 | 3.0 | 6.0 | 0.00 | 0.00 | 0.00 | 72 | 1017.2 |
| 20260506125058 | 33 | 281 | 2.0 | 6.0 | 0.00 | 0.00 | 0.00 | 72 | 1017.2 |
| 20260506124600 | 33 | 280 | 1.0 | 6.0 | 0.00 | 0.00 | 0.00 | 72 | 1017.1 |
| 20260506124058 | 33 | 0 | 0.0 | 6.0 | 0.00 | 0.00 | 0.00 | 72 | 1017.2 |
| 20260506123559 | 33 | 245 | 2.0 | 6.0 | 0.00 | 0.00 | 0.00 | 73 | 1017.1 |
| 20260506123057 | 33 | 256 | 2.0 | 5.0 | 0.00 | 0.00 | 0.00 | 73 | 1017.0 |
| 20260506122602 | 33 | 254 | 1.0 | 4.0 | 0.00 | 0.00 | 0.00 | 73 | 1017.0 |
| 20260506122059 | 33 | 273 | 1.0 | 3.0 | 0.00 | 0.00 | 0.00 | 72 | 1016.9 |
| 20260506121559 | 33 | 274 | 1.0 | 3.0 | 0.00 | 0.00 | 0.00 | 72 | 1016.8 |
| 20260506121059 | 33 | 284 | 1.0 | 3.0 | 0.00 | 0.00 | 0.00 | 72 | 1016.8 |
| 20260506120601 | 32 | 280 | 1.0 | 3.0 | 0.00 | 0.00 | 0.00 | 72 | 1016.7 |
| 20260506115602 | 32 | 278 | 1.0 | 3.0 | 0.00 | 0.00 | 0.00 | 72 | 1016.6 |
| 20260506115058 | 32 | 289 | 1.0 | 3.0 | 0.00 | 0.00 | 0.00 | 72 | 1016.5 |
| 20260506114605 | 32 | 284 | 1.0 | 3.0 | 0.00 | 0.00 | 0.00 | 72 | 1016.4 |
| 20260506114059 | 32 | 277 | 1.0 | 3.0 | 0.00 | 0.00 | 0.00 | 72 | 1016.3 |
| 20260506113558 | 32 | 272 | 1.0 | 2.0 | 0.00 | 0.00 | 0.00 | 72 | 1016.3 |
| 20260506113056 | 32 | 264 | 0.0 | 3.0 | 0.00 | 0.00 | 0.00 | 72 | 1016.2 |
| 20260506112602 | 32 | 0 | 0.0 | 4.0 | 0.00 | 0.00 | 0.00 | 72 | 1016.1 |
| 20260506112102 | 32 | 264 | 1.0 | 4.0 | 0.00 | 0.00 | 0.00 | 71 | 1016.1 |
| 20260506111557 | 32 | 273 | 1.0 | 3.0 | 0.00 | 0.00 | 0.00 | 71 | 1016.0 |
| 20260506111059 | 32 | 278 | 1.0 | 3.0 | 0.00 | 0.00 | 0.00 | 71 | 1016.0 |
| 20260506110559 | 32 | 0 | 2.0 | 3.0 | 0.00 | 0.00 | 0.00 | 71 | 1015.9 |
| 20260506110057 | 32 | 273 | 1.0 | 4.0 | 0.00 | 0.00 | 0.00 | 71 | 1015.9 |
| 20260506105559 | 32 | 280 | 2.0 | 4.0 | 0.00 | 0.00 | 0.00 | 71 | 1015.8 |
| 20260506105059 | 32 | 284 | 1.0 | 4.0 | 0.00 | 0.00 | 0.00 | 70 | 1015.8 |
| 20260506104632 | 32 | 286 | 1.0 | 4.0 | 0.00 | 0.00 | 0.00 | 70 | 1015.8 |
| 20260506104059 | 32 | 290 | 1.0 | 3.0 | 0.00 | 0.00 | 0.00 | 70 | 1015.7 |
| 20260506103558 | 32 | 290 | 1.0 | 3.0 | 0.00 | 0.00 | 0.00 | 70 | 1015.7 |
| 20260506103108 | 32 | 290 | 1.0 | 3.0 | 0.00 | 0.00 | 0.00 | 70 | 1015.7 |
| 20260506102559 | 33 | 286 | 1.0 | 3.0 | 0.00 | 0.00 | 0.00 | 69 | 1015.8 |
| 20260506102102 | 33 | 0 | 1.0 | 3.0 | 0.00 | 0.00 | 0.00 | 68 | 1015.7 |
| 20260506101558 | 33 | 298 | 1.0 | 2.0 | 0.00 | 0.00 | 0.00 | 68 | 1015.7 |
| 20260506101059 | 33 | 0 | 0.0 | 3.0 | 0.00 | 0.00 | 0.00 | 67 | 1015.7 |
| 20260506100559 | 33 | 298 | 1.0 | 3.0 | 0.00 | 0.00 | 0.00 | 67 | 1015.7 |
| 20260506100100 | 33 | 298 | 0.0 | 2.0 | 0.00 | 0.00 | 0.00 | 67 | 1015.7 |
| 20260506095601 | 34 | 311 | 0.0 | 3.0 | 0.00 | 0.00 | 0.00 | 67 | 1015.6 |
| 20260506095059 | 34 | 0 | 0.0 | 3.0 | 0.00 | 0.00 | 0.00 | 67 | 1015.5 |
| 20260506094557 | 34 | 298 | 1.0 | 3.0 | 0.00 | 0.00 | 0.00 | 67 | 1015.5 |
| 20260506094058 | 34 | 0 | 0.0 | 2.0 | 0.00 | 0.00 | 0.00 | 68 | 1015.5 |
| 20260506093559 | 34 | 0 | 0.0 | 2.0 | 0.00 | 0.00 | 0.00 | 68 | 1015.5 |
| 20260506093104 | 34 | 305 | 0.0 | 2.0 | 0.00 | 0.00 | 0.00 | 68 | 1015.5 |
| 20260506092557 | 34 | 308 | 0.0 | 3.0 | 0.00 | 0.00 | 0.00 | 68 | 1015.5 |
| 20260506092057 | 34 | 0 | 0.0 | 3.0 | 0.00 | 0.00 | 0.00 | 68 | 1015.6 |
| 20260506091556 | 34 | 279 | 1.0 | 3.0 | 0.00 | 0.00 | 0.00 | 68 | 1015.8 |
| 20260506091057 | 34 | 279 | 0.0 | 3.0 | 0.00 | 0.00 | 0.00 | 68 | 1015.8 |
| 20260506090556 | 34 | 0 | 1.0 | 3.0 | 0.00 | 0.00 | 0.00 | 68 | 1015.9 |
| 20260506090057 | 34 | 309 | 1.0 | 4.0 | 0.00 | 0.00 | 0.00 | 68 | 1015.9 |
| 20260506085557 | 34 | 299 | 1.0 | 4.0 | 0.00 | 0.00 | 0.00 | 68 | 1015.7 |
| 20260506085056 | 34 | 301 | 0.0 | 3.0 | 0.00 | 0.00 | 0.00 | 68 | 1015.5 |
| 20260506084557 | 34 | 321 | 1.0 | 5.0 | 0.00 | 0.00 | 0.00 | 68 | 1015.3 |
| 20260506084055 | 34 | 0 | 1.0 | 5.0 | 0.00 | 0.00 | 0.00 | 68 | 1015.2 |
| 20260506083555 | 34 | 321 | 1.0 | 5.0 | 0.00 | 0.00 | 0.00 | 69 | 1015.0 |
| 20260506083056 | 34 | 332 | 2.0 | 4.0 | 0.00 | 0.00 | 0.00 | 69 | 1015.0 |
| 20260506082554 | 34 | 33 | 2.0 | 4.0 | 0.00 | 0.00 | 0.00 | 68 | 1014.9 |
| 20260506082056 | 34 | 9 | 1.0 | 4.0 | 0.00 | 0.00 | 0.00 | 68 | 1014.8 |
| 20260506081601 | 34 | 9 | 1.0 | 4.0 | 0.00 | 0.00 | 0.00 | 68 | 1014.7 |
| 20260506081055 | 34 | 5 | 2.0 | 4.0 | 0.00 | 0.00 | 0.00 | 68 | 1014.8 |
| 20260506080555 | 34 | 360 | 1.0 | 4.0 | 0.00 | 0.00 | 0.00 | 68 | 1014.9 |
| 20260506080109 | 34 | 355 | 1.0 | 4.0 | 0.00 | 0.00 | 0.00 | 68 | 1015.0 |
| 20260506073057 | 34 | 306 | 0.0 | 3.0 | 0.00 | 0.00 | 0.00 | 66 | 1015.3 |
| 20260506072600 | 34 | 295 | 0.0 | 3.0 | 0.00 | 0.00 | 0.00 | 66 | 1015.4 |
| 20260506072057 | 34 | 313 | 0.0 | 3.0 | 0.00 | 0.00 | 0.00 | 65 | 1015.4 |
| 20260506071620 | 34 | 307 | 0.0 | 3.0 | 0.00 | 0.00 | 0.00 | 65 | 1015.2 |
| 20260506071056 | 34 | 301 | 0.0 | 3.0 | 0.00 | 0.00 | 0.00 | 64 | 1015.2 |
| 20260506070558 | 34 | 291 | 0.0 | 2.0 | 0.00 | 0.00 | 0.00 | 64 | 1015.2 |
| 20260506062058 | 35 | 303 | 1.0 | 3.0 | 0.00 | 0.00 | 0.00 | 64 | 1015.2 |
| 20260506061600 | 35 | 304 | 0.0 | 3.0 | 0.00 | 0.00 | 0.00 | 64 | 1015.2 |
| 20260506061058 | 35 | 0 | 0.0 | 3.0 | 0.00 | 0.00 | 0.00 | 64 | 1015.1 |
| 20260506060602 | 35 | 327 | 1.0 | 3.0 | 0.00 | 0.00 | 0.00 | 64 | 1015.0 |
| 20260506051059 | 34 | 319 | 1.0 | 4.0 | 0.00 | 0.00 | 0.00 | 61 | 1014.9 |
| 20260506050559 | 34 | 293 | 1.0 | 4.0 | 0.00 | 0.00 | 0.00 | 61 | 1014.9 |
| 20260506045101 | 34 | 0 | 1.0 | 3.0 | 0.00 | 0.00 | 0.00 | 60 | 1014.9 |
| 20260506044611 | 34 | 298 | 1.0 | 3.0 | 0.00 | 0.00 | 0.00 | 60 | 1014.9 |
| 20260506044059 | 34 | 295 | 1.0 | 3.0 | 0.00 | 0.00 | 0.00 | 60 | 1014.9 |
| 20260506043559 | 34 | 295 | 1.0 | 3.0 | 0.00 | 0.00 | 0.00 | 59 | 1014.9 |
| 20260506043059 | 35 | 308 | 0.0 | 3.0 | 0.00 | 0.00 | 0.00 | 59 | 1014.9 |
| 20260506042559 | 35 | 315 | 1.0 | 2.0 | 0.00 | 0.00 | 0.00 | 58 | 1014.9 |
| 20260506042058 | 35 | 323 | 0.0 | 2.0 | 0.00 | 0.00 | 0.00 | 58 | 1015.0 |
| 20260506041558 | 35 | 0 | 1.0 | 4.0 | 0.00 | 0.00 | 0.00 | 59 | 1015.0 |
| 20260506041058 | 35 | 9 | 0.0 | 4.0 | 0.00 | 0.00 | 0.00 | 58 | 1015.0 |
| 20260506040558 | 35 | 9 | 1.0 | 4.0 | 0.00 | 0.00 | 0.00 | 58 | 1015.0 |
| 20260506040057 | 36 | 288 | 2.0 | 4.0 | 0.00 | 0.00 | 0.00 | 57 | 1015.0 |
| 20260506035555 | 36 | 286 | 1.0 | 4.0 | 0.00 | 0.00 | 0.00 | 57 | 1014.9 |
| 20260506035059 | 36 | 269 | 1.0 | 4.0 | 0.00 | 0.00 | 0.00 | 56 | 1014.9 |
| 20260506034601 | 36 | 274 | 2.0 | 4.0 | 0.00 | 0.00 | 0.00 | 55 | 1014.8 |
| 20260506034056 | 36 | 293 | 1.0 | 4.0 | 0.00 | 0.00 | 0.00 | 55 | 1014.8 |
| 20260506033559 | 37 | 301 | 1.0 | 4.0 | 0.00 | 0.00 | 0.00 | 54 | 1014.7 |
| 20260506033057 | 37 | 301 | 1.0 | 4.0 | 0.00 | 0.00 | 0.00 | 54 | 1014.6 |
| 20260506032559 | 37 | 294 | 1.0 | 4.0 | 0.00 | 0.00 | 0.00 | 54 | 1014.5 |
| 20260506032059 | 37 | 293 | 2.0 | 4.0 | 0.00 | 0.00 | 0.00 | 53 | 1014.4 |
| 20260506031558 | 37 | 296 | 2.0 | 5.0 | 0.00 | 0.00 | 0.00 | 53 | 1014.3 |
| 20260506031102 | 38 | 304 | 2.0 | 5.0 | 0.00 | 0.00 | 0.00 | 52 | 1014.3 |
| 20260506030600 | 38 | 308 | 2.0 | 6.0 | 0.00 | 0.00 | 0.00 | 52 | 1014.3 |
| 20260506030100 | 38 | 300 | 1.0 | 6.0 | 0.00 | 0.00 | 0.00 | 52 | 1014.3 |
| 20260506025600 | 38 | 272 | 2.0 | 4.0 | 0.00 | 0.00 | 0.00 | 52 | 1014.3 |
| 20260506025058 | 39 | 282 | 2.0 | 4.0 | 0.00 | 0.00 | 0.00 | 52 | 1014.3 |
| 20260506024559 | 39 | 287 | 2.0 | 4.0 | 0.00 | 0.00 | 0.00 | 51 | 1014.2 |
| 20260506024059 | 39 | 297 | 2.0 | 4.0 | 0.00 | 0.00 | 0.00 | 51 | 1014.1 |
| 20260506023559 | 39 | 301 | 2.0 | 4.0 | 0.00 | 0.00 | 0.00 | 51 | 1014.0 |
| 20260506023059 | 40 | 319 | 1.0 | 6.0 | 0.00 | 0.00 | 0.00 | 50 | 1014.0 |
| 20260506022600 | 40 | 296 | 2.0 | 6.0 | 0.00 | 0.00 | 0.00 | 50 | 1014.0 |
| 20260506022100 | 40 | 301 | 2.0 | 8.0 | 0.00 | 0.00 | 0.00 | 49 | 1013.9 |
| 20260506021559 | 40 | 317 | 3.0 | 8.0 | 0.00 | 0.00 | 0.00 | 49 | 1013.8 |
| 20260506021058 | 41 | 298 | 2.0 | 6.0 | 0.00 | 0.00 | 0.00 | 49 | 1013.6 |
| 20260506020601 | 41 | 289 | 2.0 | 6.0 | 0.00 | 0.00 | 0.00 | 48 | 1013.7 |
| 20260506020057 | 41 | 302 | 2.0 | 5.0 | 0.00 | 0.00 | 0.00 | 48 | 1013.5 |
| 20260506015600 | 41 | 338 | 2.0 | 9.0 | 0.00 | 0.00 | 0.00 | 48 | 1013.4 |
| 20260506015059 | 42 | 302 | 2.0 | 9.0 | 0.00 | 0.00 | 0.00 | 48 | 1013.3 |
| 20260506014559 | 42 | 326 | 2.0 | 9.0 | 0.00 | 0.00 | 0.00 | 48 | 1013.2 |
| 20260506014059 | 42 | 289 | 3.0 | 9.0 | 0.00 | 0.00 | 0.00 | 48 | 1013.2 |
| 20260506013559 | 42 | 290 | 3.0 | 11.0 | 0.00 | 0.00 | 0.00 | 48 | 1013.1 |
| 20260506013059 | 42 | 325 | 4.0 | 11.0 | 0.00 | 0.00 | 0.00 | 48 | 1013.2 |
| 20260506012559 | 43 | 305 | 3.0 | 14.0 | 0.00 | 0.00 | 0.00 | 47 | 1013.2 |
| 20260506012103 | 43 | 319 | 3.0 | 14.0 | 0.00 | 0.00 | 0.00 | 47 | 1013.2 |
| 20260506011557 | 43 | 323 | 5.0 | 14.0 | 0.00 | 0.00 | 0.00 | 46 | 1013.3 |
| 20260506011059 | 43 | 340 | 3.0 | 13.0 | 0.00 | 0.00 | 0.00 | 46 | 1013.2 |
| 20260506010559 | 43 | 330 | 4.0 | 13.0 | 0.00 | 0.00 | 0.00 | 45 | 1013.1 |
| 20260506005600 | 44 | 317 | 4.0 | 17.0 | 0.00 | 0.00 | 0.00 | 44 | 1013.0 |
| 20260506005058 | 44 | 5 | 5.0 | 14.0 | 0.00 | 0.00 | 0.00 | 44 | 1012.9 |
| 20260506004604 | 44 | 271 | 5.0 | 14.0 | 0.00 | 0.00 | 0.00 | 44 | 1012.9 |
| 20260506004059 | 45 | 313 | 6.0 | 14.0 | 0.00 | 0.00 | 0.00 | 44 | 1012.9 |
| 20260506003604 | 45 | 331 | 6.0 | 14.0 | 0.00 | 0.00 | 0.00 | 44 | 1012.8 |
| 20260506003107 | 45 | 330 | 6.0 | 14.0 | 0.00 | 0.00 | 0.00 | 44 | 1012.8 |
| 20260506002601 | 45 | 291 | 7.0 | 14.0 | 0.00 | 0.00 | 0.00 | 43 | 1012.7 |
| 20260506002058 | 45 | 312 | 5.0 | 16.0 | 0.00 | 0.00 | 0.00 | 43 | 1012.7 |
| 20260506001606 | 45 | 314 | 3.0 | 16.0 | 0.00 | 0.00 | 0.00 | 43 | 1012.6 |
| 20260506001056 | 46 | 309 | 7.0 | 16.0 | 0.00 | 0.00 | 0.00 | 42 | 1012.6 |
| 20260506000559 | 46 | 304 | 4.0 | 14.0 | 0.00 | 0.00 | 0.00 | 42 | 1012.7 |
| 20260506000110 | 46 | 317 | 8.0 | 19.0 | 0.00 | 0.00 | 0.00 | 42 | 1012.5 |
| 20260505235600 | 46 | 288 | 8.0 | 19.0 | 0.00 | 0.00 | 0.00 | 42 | 1012.5 |
| 20260505235059 | 46 | 296 | 6.0 | 18.0 | 0.00 | 0.00 | 0.00 | 42 | 1012.6 |
| 20260505234613 | 46 | 286 | 6.0 | 18.0 | 0.00 | 0.00 | 0.00 | 42 | 1012.7 |
| 20260505234059 | 46 | 309 | 5.0 | 15.0 | 0.00 | 0.00 | 0.00 | 42 | 1012.5 |
| 20260505233558 | 46 | 325 | 6.0 | 15.0 | 0.00 | 0.00 | 0.00 | 43 | 1012.5 |
| 20260505233058 | 46 | 302 | 6.0 | 12.0 | 0.00 | 0.00 | 0.00 | 43 | 1012.6 |
| 20260505232558 | 46 | 289 | 5.0 | 15.0 | 0.00 | 0.00 | 0.00 | 42 | 1012.5 |
| 20260505232059 | 46 | 290 | 7.0 | 15.0 | 0.00 | 0.00 | 0.00 | 42 | 1012.4 |
| 20260505231556 | 46 | 301 | 6.0 | 13.0 | 0.00 | 0.00 | 0.00 | 42 | 1012.5 |
| 20260505231058 | 46 | 273 | 5.0 | 13.0 | 0.00 | 0.00 | 0.00 | 42 | 1012.4 |
| 20260505230601 | 47 | 321 | 5.0 | 14.0 | 0.00 | 0.00 | 0.00 | 42 | 1012.4 |
| 20260505230057 | 47 | 299 | 5.0 | 14.0 | 0.00 | 0.00 | 0.00 | 42 | 1012.4 |
| 20260505225559 | 47 | 263 | 7.0 | 14.0 | 0.00 | 0.00 | 0.00 | 41 | 1012.4 |
| 20260505225058 | 47 | 274 | 5.0 | 14.0 | 0.00 | 0.00 | 0.00 | 42 | 1012.4 |
| 20260505224603 | 47 | 300 | 7.0 | 16.0 | 0.00 | 0.00 | 0.00 | 42 | 1012.4 |
| 20260505224059 | 47 | 269 | 8.0 | 16.0 | 0.00 | 0.00 | 0.00 | 42 | 1012.4 |
| 20260505223559 | 47 | 278 | 5.0 | 15.0 | 0.00 | 0.00 | 0.00 | 42 | 1012.3 |
| 20260505223113 | 47 | 275 | 6.0 | 14.0 | 0.00 | 0.00 | 0.00 | 42 | 1012.3 |
| 20260505222559 | 47 | 319 | 5.0 | 13.0 | 0.00 | 0.00 | 0.00 | 42 | 1012.3 |
| 20260505222059 | 47 | 277 | 8.0 | 18.0 | 0.00 | 0.00 | 0.00 | 41 | 1012.4 |
| 20260505221606 | 47 | 310 | 8.0 | 18.0 | 0.00 | 0.00 | 0.00 | 40 | 1012.1 |
| 20260505221058 | 47 | 280 | 6.0 | 18.0 | 0.00 | 0.00 | 0.00 | 42 | 1012.2 |
| 20260505220559 | 47 | 298 | 9.0 | 18.0 | 0.00 | 0.00 | 0.00 | 41 | 1012.3 |